Location: Ferchesar
(52.6477°N, 12.4298°E)
Time: 02:56:43
(UTC+01:00)

Transit 2A - Pass Details

Date: 11 December 2021
Orbit: 591 x 967 km, 66.7° (Epoch: 17 January)

Event Time Altitude Azimuth Distance (km) Brightness Sun altitude
Exits shadow 02:45:45 14° 39° (NE) 2,452 9.0 -47.3°
Drops below altitude 10° 02:46:49 10° 46° (NE) 2,716 9.3 -47.2°
Sets 02:50:00 0° 61° (ENE) 3,654 10.2 -46.7°
